Hourly Weather Roundup
Issued by NWS Central Illinois

Home | Current Version | Previous Version | Text Only | Print | Product List | Glossary On
Versions: 1 2 3 4 5 6 7 8 9 10 11 12 13 14 15 16 17 18 19 20 21 22 23 24 25 26 27 28 29 30 31 32 33 34 35 36 37 38 39 40 41 42 43 44 45 46 47 48 49 50
000
NZUS43 KILX 230410
HWRILX

AREA WEATHER ROUNDUP
NATIONAL WEATHER SERVICE, LINCOLN IL
1100 PM CDT WED OCT 22 2014


CITY           SKY/WX    TMP DP  RH WIND       PRES   REMARKS
BLOOMINGTON    CLEAR     41  36  82 SE3       30.27S
CHAMPAIGN      CLEAR     43  36  76 MISG      30.26S
DECATUR        CLEAR     44  37  76 NE3       30.27R
FLORA          CLEAR     43  41  93 CALM      30.26R
GALESBURG      CLEAR     45  37  73 E5        30.23S
JACKSONVILLE   CLEAR     44  38  80 SE5       30.25S
LACON          CLEAR     39  33  79 CALM      30.26S
LAWRENCEVILLE  CLEAR     44  42  93 NE5       30.26R
LITCHFIELD     CLEAR     41  37  86 CALM      30.25S
$$


CITY           SKY/WX    TMP DP  RH WIND       PRES   REMARKS
LINCOLN        CLEAR     40  36  87 CALM      30.25F
MACOMB         CLEAR     39  36  88 SE7       30.25S WCI  34
MATTOON        CLEAR     43  39  86 CALM      30.25S
MT CARMEL AP   CLEAR     43  43 100 CALM      30.25S
OLNEY-NOBLE AP CLEAR     41  39  93 CALM      30.26R
PARIS          CLEAR     38  37  97 CALM      30.27S
PEORIA         CLEAR     43  37  79 CALM      30.26S
PONTIAC        CLEAR     38  34  87 E5        30.28S WCI  34
RANTOUL        CLEAR     44  36  75 CALM      30.26S HAZE
ROBINSON       CLEAR     39  39  99 CALM      30.27S
SPRINGFIELD    CLEAR     39  36  89 E3        30.26S
TAYLORVILLE    CLEAR     39  37  93 CALM      30.25S
$$

...REGIONAL REPORTS...


CITY           SKY/WX    TMP DP  RH WIND       PRES   REMARKS
CHICAGO O`HARE CLEAR     39  35  86 CALM      30.27S
KANKAKEE       CLEAR     39  37  90 E3        30.29R
MOLINE         CLEAR     42  35  76 SE6       30.22F
MOUNT VERNON   CLEAR     37  34  87 CALM      30.26R
PITTSFIELD     CLEAR     42  39  91 E5        30.24F
QUINCY         CLEAR     47  40  76 SE7       30.20F
ROCKFORD       CLEAR     40  34  79 SE6       30.27F
$$


CITY           SKY/WX    TMP DP  RH WIND       PRES   REMARKS
BURLINGTON     PTCLDY    49  39  68 SE8       30.20F
CEDAR RAPIDS   MOCLDY    50  40  68 S8        30.18S
DES MOINES     MOCLDY    57  44  62 SE12      30.11F
KIRKSVILLE     CLEAR     47  42  83 SE8       30.19S
OTTUMWA        PTCLDY    51  40  65 SE13      30.16F
ST LOUIS       PTCLDY    49  40  71 E3        30.25R
$$


CITY           SKY/WX    TMP DP  RH WIND       PRES   REMARKS
TERRE HAUTE    CLEAR     39  36  89 CALM      30.26S
EVANSVILLE     CLEAR     45  41  86 CALM      30.25S
INDIANAPOLIS   CLEAR     45  39  79 E8        30.25S
LAFAYETTE      CLEAR     40  38  93 CALM      30.27S
MADISON        PTCLDY    44  38  79 S10       30.23F
MILWAUKEE      CLEAR     37  33  85 CALM      30.27S
$$





USA.gov is the U.S. government's official web portal to all federal, state and local government web resources and services.